Location: �clusier
(49.9361°N, 2.7869°E)
Time: 20:39:08
(UTC+00:00)

Centaur D AC-29 - Pass Details

Date: 29 October 2021
Orbit: 563 x 36274 km, 26.9° (Epoch: 02 December)

Event Time Altitude Azimuth Distance (km) Brightness Sun altitude
Rises 23:40:58 0° 153° (SSE) 13,821 7.6 -53.5°
Reaches altitude 10° 00:03:33 10° 139° (SE) 18,121 8.2 -53.0°
Maximum altitude 07:37:29 60° 168° (SSE) 25,476 9.6 8.3°
Drops below altitude 10° 09:20:50 10° 116° (ESE) 8,828 8.1 20.2°
Sets 09:24:53 0° 112° (ESE) 8,655 7.8 20.6°
